FW2710 Weather Reports


time (UTC)temp
C
wind
direction
speed
KPH
gust
KPH
rain 1hr
cm
rain 24hr
cm
rain mn
cm
humidity
%
barometer
mb
20260906130054 20 0 0.0 0.0 0.00 0.00 0.00 91 1019.3
20260906125525 20 0 0.0 0.0 0.00 0.00 0.00 92 1019.2
20260906125026 20 0 0.0 0.0 0.00 0.00 0.00 92 1019.1
20260906124550 20 0 0.0 0.0 0.00 0.00 0.00 92 1019.0
20260906124027 20 0 0.0 0.0 0.00 0.00 0.00 92 1018.9
20260906123527 20 0 0.0 0.0 0.00 0.00 0.00 92 1018.8
20260906123048 20 0 0.0 0.0 0.00 0.00 0.00 92 1018.7
20260906122523 20 0 0.0 0.0 0.00 0.00 0.00 92 1018.8
20260906122026 20 0 0.0 0.0 0.00 0.00 0.00 92 1018.7
20260906121554 20 0 0.0 0.0 0.00 0.00 0.00 92 1018.6
20260906121026 20 0 0.0 0.0 0.00 0.00 0.00 92 1018.6
20260906120527 20 0 0.0 0.0 0.00 0.00 0.00 92 1018.3
20260906120040 20 0 0.0 0.0 0.00 0.00 0.00 91 1018.1
20260906115526 20 0 0.0 0.0 0.00 0.00 0.00 91 1018.0
20260906115027 20 0 0.0 0.0 0.00 0.00 0.00 91 1018.0
20260906114557 21 0 0.0 0.0 0.00 0.00 0.00 91 1018.0
20260906114025 21 0 0.0 0.0 0.00 0.00 0.00 91 1017.9
20260906113524 21 0 0.0 0.0 0.00 0.00 0.00 91 1017.8
20260906113054 21 0 0.0 0.0 0.00 0.00 0.00 91 1017.9
20260906112525 21 0 0.0 0.0 0.00 0.00 0.00 91 1017.8
20260906112026 21 0 0.0 0.0 0.00 0.00 0.00 91 1017.7
20260906111545 21 0 0.0 1.6 0.00 0.00 0.00 91 1017.7
20260906111025 21 0 0.0 3.2 0.00 0.00 0.00 91 1017.5
20260906110525 21 0 0.0 3.2 0.00 0.00 0.00 91 1017.5
20260906110049 21 0 0.0 12.9 0.00 0.00 0.00 91 1017.3
20260906105526 21 0 0.0 12.9 0.00 0.00 0.00 92 1017.3
20260906105026 21 0 0.0 0.0 0.00 0.00 0.00 92 1017.4
20260906104548 21 0 0.0 0.0 0.00 0.00 0.00 92 1017.2
20260906104029 21 0 0.0 0.0 0.00 0.00 0.00 92 1017.1
20260906103527 21 0 0.0 0.0 0.00 0.00 0.00 92 1017.0
20260906103048 21 0 0.0 0.0 0.00 0.00 0.00 92 1017.2
20260906102526 21 0 0.0 0.0 0.00 0.00 0.00 92 1017.2
20260906102028 21 0 0.0 0.0 0.00 0.00 0.00 92 1017.0
20260906101546 21 0 0.0 4.8 0.00 0.00 0.00 92 1017.0
20260906101025 21 0 0.0 4.8 0.00 0.00 0.00 93 1017.0
20260906100526 21 0 0.0 0.0 0.00 0.00 0.00 93 1016.9
20260906100050 21 0 0.0 0.0 0.00 0.00 0.00 93 1016.9
20260906095525 21 0 0.0 0.0 0.00 0.00 0.00 93 1016.9
20260906095026 21 0 0.0 0.0 0.00 0.00 0.00 93 1016.8
20260906094548 21 0 0.0 0.0 0.00 0.00 0.00 93 1016.9
20260906094025 21 0 0.0 0.0 0.00 0.00 0.00 93 1017.0
20260906093526 21 0 0.0 0.0 0.00 0.00 0.00 93 1017.0
20260906093045 21 0 0.0 0.0 0.00 0.00 0.00 92 1016.9
20260906092526 21 0 0.0 0.0 0.00 0.00 0.00 92 1017.0
20260906092026 21 0 0.0 0.0 0.00 0.00 0.00 92 1016.9
20260906091550 21 0 0.0 0.0 0.00 0.00 0.00 92 1016.9
20260906091027 21 0 0.0 1.6 0.00 0.00 0.00 92 1016.9
20260906090526 21 0 0.0 1.6 0.00 0.00 0.00 92 1016.9
20260906090054 21 0 0.0 0.0 0.00 0.00 0.00 92 1016.9
20260906085529 21 0 0.0 0.0 0.00 0.00 0.00 92 1016.9
20260906085026 21 0 0.0 0.0 0.00 0.00 0.00 92 1016.9
20260906084548 21 0 0.0 0.0 0.00 0.00 0.00 92 1016.9
20260906084025 21 0 0.0 0.0 0.00 0.00 0.00 92 1017.0
20260906083529 21 0 0.0 0.0 0.00 0.00 0.00 92 1017.0
20260906083042 21 0 0.0 0.0 0.00 0.00 0.00 92 1017.0
20260906082529 21 0 0.0 0.0 0.00 0.00 0.00 92 1017.0
20260906082027 21 0 0.0 0.0 0.00 0.00 0.00 92 1016.9
20260906081553 21 0 0.0 4.8 0.00 0.00 0.00 91 1017.0
20260906081028 21 0 0.0 4.8 0.00 0.00 0.00 92 1017.0
20260906080528 21 0 0.0 0.0 0.00 0.00 0.00 91 1017.0
20260906080046 21 0 0.0 0.0 0.00 0.00 0.00 91 1017.0
20260906075526 21 0 0.0 0.0 0.00 0.00 0.00 91 1016.9
20260906075026 21 0 0.0 0.0 0.00 0.00 0.00 91 1017.1
20260906074604 21 0 0.0 0.0 0.00 0.00 0.00 91 1017.1
20260906074025 21 0 0.0 0.0 0.00 0.00 0.00 91 1017.0
20260906073526 21 0 0.0 0.0 0.00 0.00 0.00 91 1017.1
20260906073042 21 0 0.0 0.0 0.00 0.00 0.00 91 1017.1
20260906072526 21 0 0.0 0.0 0.00 0.00 0.00 91 1017.1
20260906072026 21 0 0.0 0.0 0.00 0.00 0.00 91 1017.0
20260906071547 21 0 0.0 0.0 0.00 0.00 0.00 91 1017.0
20260906071023 21 0 0.0 0.0 0.00 0.00 0.00 91 1017.0
20260906070526 21 0 0.0 0.0 0.00 0.00 0.00 92 1017.2
20260906070046 21 0 0.0 0.0 0.00 0.00 0.00 92 1017.2
20260906065529 21 0 0.0 0.0 0.00 0.00 0.00 92 1017.2
20260906065026 21 0 0.0 0.0 0.00 0.00 0.00 92 1017.3
20260906064548 21 0 0.0 0.0 0.00 0.00 0.00 92 1017.3
20260906064026 20 0 0.0 0.0 0.00 0.00 0.00 92 1017.3
20260906063525 20 0 0.0 0.0 0.00 0.00 0.00 92 1017.3
20260906063049 20 0 0.0 0.0 0.00 0.00 0.00 92 1017.3
20260906062525 20 0 0.0 0.0 0.00 0.00 0.00 92 1017.3
20260906062030 20 0 0.0 0.0 0.00 0.00 0.00 92 1017.5
20260906061550 20 0 0.0 0.0 0.00 0.00 0.00 91 1017.4
20260906061026 20 0 0.0 0.0 0.00 0.00 0.00 91 1017.4
20260906060526 20 0 0.0 0.0 0.00 0.00 0.00 91 1017.4
20260906060046 20 0 0.0 0.0 0.00 0.00 0.00 91 1017.5
20260906055525 20 0 0.0 0.0 0.00 0.00 0.00 91 1017.5
20260906055025 20 0 0.0 0.0 0.00 0.00 0.00 91 1017.4
20260906054548 20 0 0.0 0.0 0.00 0.00 0.00 90 1017.3
20260906054023 20 0 0.0 0.0 0.00 0.00 0.00 90 1017.2
20260906053527 21 0 0.0 0.0 0.00 0.00 0.00 90 1017.1
20260906053046 21 0 0.0 0.0 0.00 0.00 0.00 90 1017.1
20260906052526 21 0 0.0 0.0 0.00 0.00 0.00 90 1017.1
20260906052026 21 0 0.0 0.0 0.00 0.00 0.00 90 1017.0
20260906051559 21 0 0.0 0.0 0.00 0.00 0.00 90 1017.0
20260906051026 21 0 0.0 0.0 0.00 0.00 0.00 91 1017.0
20260906050525 21 0 0.0 3.2 0.00 0.00 0.00 91 1017.0
20260906050052 21 0 0.0 3.2 0.00 0.00 0.00 91 1016.9
20260906045525 21 0 0.0 0.0 0.00 0.00 0.00 91 1016.8
20260906045028 21 0 0.0 0.0 0.00 0.00 0.00 91 1016.8
20260906044551 21 0 0.0 0.0 0.00 0.00 0.00 90 1016.7
20260906044028 21 0 0.0 0.0 0.00 0.00 0.00 90 1016.7
20260906043530 21 0 0.0 0.0 0.00 0.00 0.00 91 1016.6
20260906043046 21 0 0.0 0.0 0.00 0.00 0.00 90 1016.4
20260906042526 21 0 0.0 0.0 0.00 0.00 0.00 90 1016.4
20260906042026 21 0 0.0 0.0 0.00 0.00 0.00 90 1016.4
20260906041546 21 0 0.0 0.0 0.00 0.00 0.00 90 1016.4
20260906041025 21 0 0.0 0.0 0.00 0.00 0.00 90 1016.3
20260906040525 21 0 0.0 0.0 0.00 0.00 0.00 90 1016.3
20260906040050 21 0 0.0 0.0 0.00 0.00 0.00 90 1016.4
20260906035525 21 0 0.0 0.0 0.00 0.00 0.00 90 1016.4
20260906035027 21 0 0.0 0.0 0.00 0.00 0.00 89 1016.3
20260906034546 21 0 0.0 0.0 0.00 0.00 0.00 89 1016.2
20260906034026 21 0 0.0 0.0 0.00 0.00 0.00 89 1016.2
20260906033526 21 0 0.0 0.0 0.00 0.00 0.00 89 1016.2
20260906033048 22 0 0.0 0.0 0.00 0.00 0.00 88 1016.2
20260906032525 22 0 0.0 0.0 0.00 0.00 0.00 88 1016.2
20260906032025 22 0 0.0 0.0 0.00 0.00 0.00 87 1016.2
20260906031555 22 0 0.0 0.0 0.00 0.00 0.00 87 1016.2
20260906031025 22 0 0.0 0.0 0.00 0.00 0.00 87 1016.2
20260906030528 22 0 0.0 0.0 0.00 0.00 0.00 87 1016.2
20260906030048 22 0 0.0 0.0 0.00 0.00 0.00 87 1016.1
20260906025524 22 0 0.0 0.0 0.00 0.00 0.00 86 1016.1
20260906025027 22 0 0.0 0.0 0.00 0.00 0.00 86 1016.2
20260906024546 23 0 0.0 0.0 0.00 0.00 0.00 86 1016.1
20260906024026 23 0 0.0 0.0 0.00 0.00 0.00 85 1016.0
20260906023526 23 0 0.0 0.0 0.00 0.00 0.00 85 1016.0
20260906023050 23 0 0.0 0.0 0.00 0.00 0.00 85 1015.8
20260906022528 23 0 0.0 0.0 0.00 0.00 0.00 85 1015.9
20260906022025 23 0 0.0 0.0 0.00 0.00 0.00 85 1015.8
20260906021545 23 0 0.0 4.8 0.00 0.00 0.00 85 1015.7
20260906021025 23 0 0.0 4.8 0.00 0.00 0.00 85 1015.7
20260906020526 23 0 0.0 0.0 0.00 0.00 0.00 85 1015.6
20260906020057 24 0 0.0 6.4 0.00 0.00 0.00 84 1015.5
20260906015524 24 0 0.0 9.7 0.00 0.00 0.00 84 1015.4
20260906015023 24 0 0.0 9.7 0.00 0.00 0.00 84 1015.4
20260906014546 24 0 0.0 6.4 0.00 0.00 0.00 84 1015.3
20260906014025 24 0 0.0 1.6 0.00 0.00 0.00 83 1015.3
20260906013525 25 0 0.0 1.6 0.00 0.00 0.00 83 1015.3
20260906013048 25 0 0.0 9.7 0.00 0.00 0.00 82 1015.2
20260906012526 25 0 0.0 9.7 0.00 0.00 0.00 82 1015.0
20260906012024 25 0 0.0 9.7 0.00 0.00 0.00 82 1015.1
20260906011550 25 0 0.0 12.9 0.00 0.00 0.00 81 1015.1
20260906011024 25 0 0.0 12.9 0.00 0.00 0.00 81 1015.1
20260906010528 25 0 0.0 9.7 0.00 0.00 0.00 81 1014.9
20260906010047 26 0 0.0 1.6 0.00 0.00 0.00 80 1014.9
20260906005524 26 0 0.0 4.8 0.00 0.00 0.00 80 1014.9
20260906005027 26 0 0.0 9.7 0.00 0.00 0.00 80 1014.7
20260906004553 26 0 0.0 9.7 0.00 0.00 0.00 79 1014.8
20260906004027 26 286 0.0 9.7 0.00 0.00 0.00 79 1014.8
20260906003524 26 0 0.0 9.7 0.00 0.00 0.00 79 1014.7
20260906003049 27 0 0.0 9.7 0.00 0.00 0.00 78 1014.7
20260906002524 27 0 0.0 9.7 0.00 0.00 0.00 77 1014.6
20260906002025 27 0 0.0 11.3 0.00 0.00 0.00 77 1014.7
20260906001548 27 0 0.0 11.3 0.00 0.00 0.00 76 1014.7
20260906001025 27 0 0.0 16.1 0.00 0.00 0.00 76 1014.7
20260906000526 28 0 0.0 16.1 0.00 0.00 0.00 75 1014.6
20260906000046 28 0 0.0 11.3 0.00 0.00 0.00 75 1014.4
20260905235526 28 0 0.0 11.3 0.00 0.00 0.00 75 1014.4
20260905235028 28 0 0.0 4.8 0.00 0.00 0.00 74 1014.3
20260905234553 28 0 0.0 6.4 0.00 0.00 0.00 73 1014.3
20260905234024 29 0 0.0 6.4 0.00 0.00 0.00 73 1014.3
20260905233524 29 0 0.0 6.4 0.00 0.00 0.00 72 1014.2
20260905233049 29 0 0.0 6.4 0.00 0.00 0.00 72 1014.2
20260905232525 30 0 0.0 16.1 0.00 0.00 0.00 72 1014.2
20260905232024 30 0 0.0 16.1 0.00 0.00 0.00 72 1014.3
20260905231546 30 0 0.0 14.5 0.00 0.00 0.00 70 1014.3
20260905231025 30 0 0.0 14.5 0.00 0.00 0.00 69 1014.2
20260905230525 30 286 0.0 6.4 0.00 0.00 0.00 70 1014.1
20260905230054 31 0 0.0 12.9 0.00 0.00 0.00 69 1014.1
20260905225523 31 0 0.0 12.9 0.00 0.00 0.00 69 1014.1
20260905225023 31 0 0.0 12.9 0.00 0.00 0.00 68 1014.0
20260905224601 31 0 0.0 11.3 0.00 0.00 0.00 68 1014.0
20260905224026 31 0 0.0 0.0 0.00 0.00 0.00 68 1014.0
20260905223525 31 0 0.0 0.0 0.00 0.00 0.00 67 1014.0
20260905223053 31 0 0.0 4.8 0.00 0.00 0.00 68 1014.0
20260905222524 32 0 0.0 4.8 0.00 0.00 0.00 66 1014.1
20260905222023 32 0 0.0 0.0 0.00 0.00 0.00 67 1014.1
20260905221556 32 0 0.0 9.7 0.00 0.00 0.00 66 1014.1
20260905221033 32 0 0.0 9.7 0.00 0.00 0.00 66 1014.0
20260905220525 32 0 0.0 6.4 0.00 0.00 0.00 66 1013.9
20260905220100 32 0 0.0 6.4 0.00 0.00 0.00 64 1014.0
20260905215525 32 0 0.0 6.4 0.00 0.00 0.00 63 1014.0
20260905215023 32 0 0.0 6.4 0.00 0.00 0.00 64 1014.0
20260905214549 32 0 0.0 9.7 0.00 0.00 0.00 64 1014.0
20260905214025 32 0 0.0 9.7 0.00 0.00 0.00 63 1013.9
20260905213526 32 0 0.0 9.7 0.00 0.00 0.00 63 1013.9
20260905213050 32 0 0.0 9.7 0.00 0.00 0.00 62 1013.9
20260905212527 33 0 0.0 11.3 0.00 0.00 0.00 62 1013.9
20260905212025 33 0 0.0 11.3 0.00 0.00 0.00 62 1013.9
20260905211603 33 0 0.0 4.8 0.00 0.00 0.00 62 1013.9
20260905211026 33 0 0.0 4.8 0.00 0.00 0.00 64 1013.8
20260905210526 32 0 0.0 4.8 0.00 0.00 0.00 64 1013.8
20260905210056 33 0 0.0 1.6 0.00 0.00 0.00 64 1013.9
20260905205523 33 0 0.0 6.4 0.00 0.00 0.00 63 1014.0
20260905205024 33 0 0.0 6.4 0.00 0.00 0.00 62 1014.0
20260905204555 33 0 0.0 3.2 0.00 0.00 0.00 64 1014.0
20260905204025 33 0 0.0 1.6 0.00 0.00 0.00 63 1014.1
20260905203526 33 0 0.0 0.0 0.00 0.00 0.00 64 1014.0
20260905203111 33 0 0.0 0.0 0.00 0.00 0.00 63 1014.1
20260905202525 33 0 0.0 6.4 0.00 0.00 0.00 64 1014.1
20260905202025 33 0 0.0 6.4 0.00 0.00 0.00 63 1014.0
20260905201547 33 287 0.0 6.4 0.00 0.00 0.00 63 1014.1
20260905201026 32 0 0.0 4.8 0.00 0.00 0.00 64 1014.0
20260905200528 33 0 0.0 14.5 0.00 0.00 0.00 64 1014.1
20260905200054 33 0 0.0 14.5 0.00 0.00 0.00 63 1014.2
20260905195527 33 0 0.0 6.4 0.00 0.00 0.00 64 1014.1
20260905195027 32 0 0.0 3.2 0.00 0.00 0.00 65 1014.2
20260905194551 33 0 0.0 3.2 0.00 0.00 0.00 64 1014.1
20260905194028 33 0 0.0 0.0 0.00 0.00 0.00 63 1014.2
20260905193527 33 0 0.0 0.0 0.00 0.00 0.00 62 1014.2
20260905193048 33 0 0.0 0.0 0.00 0.00 0.00 63 1014.1
20260905192523 33 0 0.0 0.0 0.00 0.00 0.00 63 1014.2
20260905192027 33 0 0.0 4.8 0.00 0.00 0.00 63 1014.2
20260905191546 33 0 0.0 4.8 0.00 0.00 0.00 63 1014.2
20260905191028 33 0 0.0 6.4 0.00 0.00 0.00 64 1014.3
20260905190525 32 0 0.0 6.4 0.00 0.00 0.00 66 1014.4
20260905190047 32 0 0.0 0.0 0.00 0.00 0.00 66 1014.4
20260905185526 32 0 0.0 0.0 0.00 0.00 0.00 66 1014.4
20260905185024 32 0 0.0 0.0 0.00 0.00 0.00 66 1014.4
20260905184600 32 0 0.0 0.0 0.00 0.00 0.00 66 1014.5
20260905184023 33 0 0.0 3.2 0.00 0.00 0.00 65 1014.6
20260905183524 33 0 0.0 3.2 0.00 0.00 0.00 65 1014.6
20260905183050 33 0 0.0 4.8 0.00 0.00 0.00 63 1014.6
20260905182526 33 0 0.0 4.8 0.00 0.00 0.00 65 1014.7
20260905182025 32 0 0.0 3.2 0.00 0.00 0.00 66 1014.7
20260905181605 32 0 0.0 3.2 0.00 0.00 0.00 65 1014.7
20260905181023 33 0 0.0 0.0 0.00 0.00 0.00 65 1014.7
20260905180526 33 0 0.0 0.0 0.00 0.00 0.00 66 1014.7
20260905180051 33 0 0.0 0.0 0.00 0.00 0.00 65 1014.7
20260905175525 33 0 0.0 0.0 0.00 0.00 0.00 66 1014.8
20260905175025 32 0 0.0 0.0 0.00 0.00 0.00 65 1014.8
20260905174552 32 0 0.0 0.0 0.00 0.00 0.00 66 1014.8
20260905174028 32 0 0.0 0.0 0.00 0.00 0.00 66 1014.9
20260905173524 32 0 0.0 3.2 0.00 0.00 0.00 68 1014.9
20260905173041 32 0 0.0 3.2 0.00 0.00 0.00 67 1014.8
20260905172524 32 0 0.0 1.6 0.00 0.00 0.00 66 1014.8
20260905172024 32 0 0.0 0.0 0.00 0.00 0.00 66 1014.8
20260905171549 32 0 0.0 0.0 0.00 0.00 0.00 67 1015.0
20260905171026 32 0 0.0 0.0 0.00 0.00 0.00 67 1015.0
20260905170527 32 0 0.0 0.0 0.00 0.00 0.00 68 1015.0
20260905170046 32 0 0.0 0.0 0.00 0.00 0.00 69 1015.1
20260905165531 32 0 0.0 6.4 0.00 0.00 0.00 68 1015.1
20260905165027 31 0 0.0 6.4 0.00 0.00 0.00 70 1015.3
20260905164546 31 0 0.0 4.8 0.00 0.00 0.00 68 1015.4
20260905164028 32 0 0.0 0.0 0.00 0.00 0.00 69 1015.3
20260905163525 31 0 0.0 0.0 0.00 0.00 0.00 70 1015.4
20260905163050 31 0 0.0 0.0 0.00 0.00 0.00 70 1015.4
20260905162527 31 0 0.0 1.6 0.00 0.00 0.00 70 1015.4
20260905162028 31 0 0.0 1.6 0.00 0.00 0.00 69 1015.3
20260905161547 31 0 0.0 0.0 0.00 0.00 0.00 69 1015.3
20260905161027 31 0 0.0 0.0 0.00 0.00 0.00 69 1015.3
20260905160526 31 0 0.0 0.0 0.00 0.00 0.00 69 1015.3
20260905160114 31 0 0.0 0.0 0.00 0.00 0.00 69 1015.2
20260905155528 31 0 0.0 0.0 0.00 0.00 0.00 67 1015.3
20260905155027 31 0 0.0 0.0 0.00 0.00 0.00 68 1015.1
20260905154551 31 0 0.0 0.0 0.00 0.00 0.00 67 1015.0
20260905154028 31 0 0.0 0.0 0.00 0.00 0.00 68 1015.0
20260905153528 31 0 0.0 0.0 0.00 0.00 0.00 67 1015.1
20260905153047 31 0 0.0 0.0 0.00 0.00 0.00 68 1015.1
20260905152527 31 0 0.0 0.0 0.00 0.00 0.00 66 1015.0
20260905152026 31 0 0.0 0.0 0.00 0.00 0.00 70 1014.9
20260905151546 31 0 0.0 0.0 0.00 0.00 0.00 70 1015.0
20260905151026 31 0 0.0 0.0 0.00 0.00 0.00 69 1015.0
20260905150529 31 0 0.0 0.0 0.00 0.00 0.00 69 1015.0
20260905150055 31 0 0.0 0.0 0.00 0.00 0.00 71 1015.0
20260905145527 31 0 0.0 0.0 0.00 0.00 0.00 71 1014.9
20260905145029 30 0 0.0 0.0 0.00 0.00 0.00 71 1014.9
20260905144549 30 0 0.0 0.0 0.00 0.00 0.00 73 1014.9
20260905144031 30 0 0.0 0.0 0.00 0.00 0.00 75 1014.8
20260905143529 30 0 0.0 0.0 0.00 0.00 0.00 75 1014.7
20260905143048 29 0 0.0 0.0 0.00 0.00 0.00 76 1014.6
20260905142526 28 0 0.0 0.0 0.00 0.00 0.00 78 1014.6
20260905142024 28 0 0.0 0.0 0.00 0.00 0.00 78 1014.5
20260905141550 28 0 0.0 0.0 0.00 0.00 0.00 80 1014.5
20260905141027 28 0 0.0 0.0 0.00 0.00 0.00 81 1014.5
20260905140530 27 0 0.0 0.0 0.00 0.00 0.00 82 1014.5
20260905140049 27 0 0.0 0.0 0.00 0.00 0.00 83 1014.6
20260905135526 27 0 0.0 0.0 0.00 0.00 0.00 83 1014.5
20260905135025 27 0 0.0 0.0 0.00 0.00 0.00 84 1014.6
20260905134545 26 0 0.0 0.0 0.00 0.00 0.00 85 1014.8
20260905134026 26 0 0.0 0.0 0.00 0.00 0.00 86 1014.9
20260905133527 26 0 0.0 0.0 0.00 0.00 0.00 87 1014.9
20260905133052 26 0 0.0 0.0 0.00 0.00 0.00 87 1014.9
20260905132525 26 0 0.0 0.0 0.00 0.00 0.00 88 1014.9
20260905132025 25 0 0.0 0.0 0.00 0.00 0.00 90 1014.8
20260905131549 25 0 0.0 0.0 0.00 0.00 0.00 90 1014.8
20260905131024 25 0 0.0 0.0 0.00 0.00 0.00 91 1014.7
20260905130526 25 0 0.0 0.0 0.00 0.00 0.00 92 1014.5